STARLINK-4033 (52702 NORAD) Tracking and Keplerian Element Data
This shows tracking and keplerian element data for the satellite.
Feedback or suggestion? Click here.
Element | Value |
Catalog | 52702 |
Name | STARLINK-4033 |
Epoch Orbit | 130 |
Epoch Day | 192.91667824 |
Epoch Year | 2022 |
RAAN | 31.0656 |
Inclination | 53.2175 |
Eccentricity | 0.0001413 |
Argument of Perigee | 70.404 |
Mean Anonmoly | 82.9257 |
Mean Motion | 15.34921788 |
Decay Rate | -0.01067612 |
L1 | 1 52702U 22053AY 22192.91667824 -.01067612 00000+0 -33858-1 0 9999 |
L2 | 2 52702 53.2175 31.0656 0001413 70.4040 82.9257 15.34921788 1301 |
Live tracking and technical data element details for STARLINK-4033 (NORAD 52702). STARLINK-4033 can be tracked NOW for your location showing map with azimuth and elevation plus other details from your city location.
Track the satellite on the map from your city or location and see movement details for azimuth, elevation, latitude, longitude, range, height, and movement on the map or in text.
IsCatalogInMostPopularTable: catalog: 52702, numindb: 10
Update: records affected: 1
GetName: 52702 STARLINK-4033
Hit Count: updated at: Sat, 13 Aug 2022 23:35:25 GMT